Private Wetterstation Wechselburg
Wetterdaten: Samstag, 24.12.2016
Datum Zeit Temp. +2m Bodentemp. Temp.+5cm Temp. Wind Windchill X Diff Temp. Feuchte +2m Feuchte +5cm Sonnenschein Luftdruck Regen Wind Richtung Richtung Sonnenschein Taupunkt Windchill Windben
24.12.2016 00:00 -0,8 C 2,6 C -0,3 C -0,3 C -0,3 C 0,5 C 87 % 77 % 0 % 1029,9 hPa 0,0 l/m 2,4 km/h (1 Bft) S 180 0 min -2,7 C -0,3 C 3,2 km/h (1 Bft)
24.12.2016 00:05 -0,9 C 2,6 C -0,5 C -0,5 C -0,5 C 0,4 C 87 % 77 % 0 % 1029,9 hPa 0,0 l/m 0,6 km/h (0 Bft) O-NO 67 0 min -2,8 C -0,5 C 0,0 km/h (0 Bft)
24.12.2016 00:10 -0,9 C 2,6 C -0,5 C -0,7 C -0,7 C 0,2 C 87 % 77 % 0 % 1029,9 hPa 0,0 l/m 0,3 km/h (0 Bft) N 360 0 min -2,8 C -0,7 C 0,0 km/h (0 Bft)
24.12.2016 00:15 -0,9 C 2,5 C -0,5 C -0,8 C -0,8 C 0,1 C 87 % 77 % 0 % 1029,9 hPa 0,0 l/m 0,2 km/h (0 Bft) O 90 0 min -2,8 C -0,8 C 0,0 km/h (0 Bft)
24.12.2016 00:20 -0,9 C 2,5 C -0,5 C -0,8 C -0,8 C 0,1 C 87 % 77 % 0 % 1028,0 hPa 0,0 l/m 0,2 km/h (0 Bft) O-NO 67 0 min -2,8 C -0,8 C 0,0 km/h (0 Bft)
24.12.2016 00:25 -0,9 C 2,5 C -0,5 C -0,8 C -0,8 C 0,1 C 87 % 77 % 0 % 1028,0 hPa 0,0 l/m 0,3 km/h (0 Bft) S 180 0 min -2,8 C -0,8 C 1,9 km/h (1 Bft)
24.12.2016 00:30 -0,9 C 2,5 C -0,4 C -0,8 C -0,8 C 0,1 C 87 % 77 % 0 % 1028,0 hPa 0,0 l/m 0,5 km/h (0 Bft) N-NO 22 0 min -2,8 C -0,8 C 0,0 km/h (0 Bft)
24.12.2016 00:35 -0,9 C 2,5 C -0,3 C -0,7 C -0,7 C 0,2 C 87 % 78 % 0 % 1028,0 hPa 0,0 l/m 0,5 km/h (0 Bft) W-SW 247 0 min -2,8 C -0,7 C 0,0 km/h (0 Bft)
24.12.2016 00:40 -0,9 C 2,5 C -0,3 C -0,6 C -0,6 C 0,3 C 87 % 78 % 0 % 1028,1 hPa 0,0 l/m 0,6 km/h (0 Bft) SW 225 0 min -2,8 C -0,6 C 2,3 km/h (1 Bft)
24.12.2016 00:45 -0,9 C 2,5 C -0,3 C -0,6 C -0,6 C 0,3 C 87 % 78 % 0 % 1028,1 hPa 0,0 l/m 1,1 km/h (1 Bft) S-SW 202 0 min -2,8 C -0,6 C 5,0 km/h (1 Bft)
24.12.2016 00:50 -0,9 C 2,5 C -0,3 C -0,7 C -0,7 C 0,2 C 87 % 77 % 0 % 1028,1 hPa 0,0 l/m 1,4 km/h (1 Bft) W-SW 247 0 min -2,8 C -0,7 C 1,8 km/h (1 Bft)
24.12.2016 00:55 -1,1 C 2,5 C -0,5 C -1,0 C -1,0 C 0,1 C 87 % 77 % 0 % 1028,1 hPa 0,0 l/m 1,1 km/h (1 Bft) S 180 0 min -3,0 C -1,0 C 0,0 km/h (0 Bft)
24.12.2016 01:00 -1,2 C 2,5 C -0,7 C -1,1 C -1,1 C 0,1 C 87 % 77 % 0 % 1028,1 hPa 0,0 l/m 0,3 km/h (0 Bft) S-SO 157 0 min -3,1 C -1,1 C 0,0 km/h (0 Bft)
24.12.2016 01:05 -1,3 C 2,5 C -1,0 C -1,3 C -1,3 C 0,0 C 87 % 77 % 0 % 1028,1 hPa 0,0 l/m 0,0 km/h (0 Bft) SW 225 0 min -3,2 C -1,3 C 0,0 km/h (0 Bft)
24.12.2016 01:10 -1,3 C 2,5 C -0,9 C -1,2 C -1,2 C 0,1 C 87 % 77 % 0 % 1028,1 hPa 0,0 l/m 0,3 km/h (0 Bft) W 270 0 min -3,2 C -1,2 C 4,8 km/h (1 Bft)
24.12.2016 01:15 -0,9 C 2,5 C -0,5 C -1,1 C -1,6 C 0,0 C 87 % 78 % 0 % 1028,1 hPa 0,0 l/m 3,5 km/h (1 Bft) W-SW 247 0 min -2,8 C -1,6 C 12,9 km/h (3 Bft)
24.12.2016 01:20 -0,7 C 2,5 C -0,1 C -1,1 C -2,0 C 0,0 C 87 % 78 % 0 % 1028,1 hPa 0,0 l/m 5,3 km/h (1 Bft) S 180 0 min -2,6 C -4,0 C 5,8 km/h (2 Bft)
24.12.2016 01:25 -0,3 C 2,5 C 0,2 C -0,6 C -1,1 C 0,0 C 88 % 78 % 0 % 1028,1 hPa 0,0 l/m 4,7 km/h (1 Bft) N-NW 337 0 min -2,0 C -2,7 C 8,2 km/h (2 Bft)
24.12.2016 01:30 -0,2 C 2,5 C 0,5 C -0,3 C -0,5 C 0,0 C 88 % 79 % 0 % 1028,1 hPa 0,0 l/m 4,2 km/h (1 Bft) SO 135 0 min -1,9 C -0,5 C 5,0 km/h (1 Bft)
24.12.2016 01:35 0,1 C 2,5 C 0,7 C 0,0 C -0,3 C 0,0 C 88 % 79 % 0 % 1028,1 hPa 0,0 l/m 5,0 km/h (1 Bft) O 90 0 min -1,6 C -1,9 C 17,4 km/h (3 Bft)
24.12.2016 01:40 0,2 C 2,5 C 0,8 C 0,1 C -0,1 C 0,0 C 88 % 78 % 0 % 1028,1 hPa 0,0 l/m 4,8 km/h (1 Bft) SO 135 0 min -1,5 C -1,6 C 6,4 km/h (2 Bft)
24.12.2016 01:45 0,4 C 2,5 C 0,9 C 0,5 C 0,5 C 0,1 C 87 % 78 % 0 % 1028,1 hPa 0,0 l/m 4,2 km/h (1 Bft) SW 225 0 min -1,5 C 0,5 C 2,7 km/h (1 Bft)
24.12.2016 01:50 0,4 C 2,5 C 1,1 C 0,6 C 0,6 C 0,2 C 87 % 78 % 0 % 1028,1 hPa 0,0 l/m 4,2 km/h (1 Bft) S 180 0 min -1,5 C 0,6 C 3,4 km/h (1 Bft)
24.12.2016 01:55 0,5 C 2,5 C 1,2 C 1,3 C 1,3 C 0,8 C 87 % 78 % 0 % 1028,1 hPa 0,0 l/m 3,2 km/h (1 Bft) S 180 0 min -1,4 C 1,3 C 9,5 km/h (2 Bft)
24.12.2016 02:00 0,7 C 2,5 C 1,3 C 1,6 C 1,6 C 0,9 C 87 % 78 % 0 % 1027,6 hPa 0,0 l/m 2,9 km/h (1 Bft) S-SO 157 0 min -1,2 C 1,6 C 2,7 km/h (1 Bft)
24.12.2016 02:05 0,7 C 2,5 C 1,3 C 1,8 C 1,8 C 1,1 C 87 % 77 % 0 % 1027,6 hPa 0,0 l/m 2,6 km/h (1 Bft) S 180 0 min -1,2 C 1,8 C 2,9 km/h (1 Bft)
24.12.2016 02:10 0,7 C 2,5 C 1,5 C 1,8 C 1,8 C 1,1 C 87 % 77 % 0 % 1027,6 hPa 0,0 l/m 2,6 km/h (1 Bft) SW 225 0 min -1,2 C 1,8 C 6,1 km/h (2 Bft)
24.12.2016 02:15 0,9 C 2,5 C 1,5 C 1,8 C 1,8 C 0,9 C 87 % 77 % 0 % 1027,6 hPa 0,0 l/m 2,9 km/h (1 Bft) O-SO 112 0 min -1,0 C 1,8 C 4,3 km/h (1 Bft)
24.12.2016 02:20 0,9 C 2,5 C 1,7 C 1,3 C 1,3 C 0,4 C 87 % 77 % 0 % 1027,2 hPa 0,7 l/m 3,9 km/h (1 Bft) S 180 0 min -1,0 C 1,3 C 4,5 km/h (1 Bft)
24.12.2016 02:25 1,1 C 2,5 C 1,6 C 1,3 C 1,3 C 0,2 C 87 % 77 % 0 % 1027,2 hPa 0,0 l/m 4,2 km/h (1 Bft) S 180 0 min -0,8 C 1,3 C 6,9 km/h (2 Bft)
24.12.2016 02:30 1,2 C 2,5 C 1,6 C 1,2 C 1,2 C 0,0 C 87 % 77 % 0 % 1027,2 hPa 0,0 l/m 4,3 km/h (1 Bft) W 270 0 min -0,7 C 1,2 C 8,2 km/h (2 Bft)
24.12.2016 02:35 1,3 C 2,5 C 1,6 C 1,3 C 1,2 C 0,0 C 86 % 77 % 0 % 1027,2 hPa 0,0 l/m 4,2 km/h (1 Bft) W-SW 247 0 min -0,8 C 1,2 C 4,2 km/h (1 Bft)
24.12.2016 02:40 1,3 C 2,5 C 1,6 C 1,6 C 1,6 C 0,3 C 86 % 77 % 0 % 1026,9 hPa 0,0 l/m 3,5 km/h (1 Bft) NW 315 0 min -0,8 C 1,6 C 2,1 km/h (1 Bft)
24.12.2016 02:45 1,5 C 2,5 C 1,6 C 1,6 C 1,6 C 0,1 C 86 % 77 % 0 % 1026,9 hPa 0,0 l/m 3,4 km/h (1 Bft) S 180 0 min -0,6 C 1,6 C 4,3 km/h (1 Bft)
24.12.2016 02:50 1,4 C 2,5 C 1,6 C 1,8 C 1,8 C 0,4 C 86 % 77 % 0 % 1026,9 hPa 0,0 l/m 2,9 km/h (1 Bft) SO 135 0 min -0,7 C 1,8 C 5,1 km/h (1 Bft)
24.12.2016 02:55 1,6 C 2,5 C 1,7 C 1,5 C 1,4 C 0,0 C 86 % 77 % 0 % 1026,9 hPa 0,0 l/m 3,7 km/h (1 Bft) NO 45 0 min -0,5 C 1,4 C 5,8 km/h (2 Bft)
24.12.2016 03:00 1,7 C 2,6 C 1,9 C 1,6 C 1,4 C 0,0 C 86 % 77 % 0 % 1026,9 hPa 0,0 l/m 4,0 km/h (1 Bft) W 270 0 min -0,4 C 1,4 C 2,4 km/h (1 Bft)
24.12.2016 03:05 1,7 C 2,6 C 1,9 C 1,6 C 1,4 C 0,0 C 86 % 77 % 0 % 1026,9 hPa 0,0 l/m 4,2 km/h (1 Bft) SO 135 0 min -0,4 C 1,4 C 7,7 km/h (2 Bft)
24.12.2016 03:10 1,9 C 2,6 C 1,8 C 1,7 C 1,4 C 0,0 C 86 % 77 % 0 % 1026,9 hPa 0,0 l/m 4,2 km/h (1 Bft) W 270 0 min -0,2 C 1,4 C 5,5 km/h (1 Bft)
24.12.2016 03:15 1,9 C 2,6 C 2,0 C 1,6 C 0,9 C 0,0 C 86 % 77 % 0 % 1026,9 hPa 0,0 l/m 5,1 km/h (1 Bft) S 180 0 min -0,2 C -0,6 C 14,5 km/h (3 Bft)
24.12.2016 03:20 2,0 C 2,6 C 2,1 C 1,6 C 0,7 C 0,0 C 86 % 77 % 0 % 1026,1 hPa 0,0 l/m 6,6 km/h (2 Bft) S 180 0 min -0,1 C -1,4 C 6,0 km/h (2 Bft)
24.12.2016 03:25 2,2 C 2,6 C 2,2 C 1,7 C 0,8 C 0,0 C 85 % 77 % 0 % 1026,1 hPa 0,0 l/m 6,9 km/h (2 Bft) SO 135 0 min -0,1 C -1,4 C 17,7 km/h (3 Bft)
24.12.2016 03:30 2,3 C 2,6 C 2,3 C 1,9 C 1,2 C 0,0 C 85 % 77 % 0 % 1026,1 hPa 0,0 l/m 6,3 km/h (2 Bft) S 180 0 min 0,0 C -0,8 C 11,1 km/h (2 Bft)
24.12.2016 03:35 2,4 C 2,6 C 2,4 C 1,9 C 1,0 C 0,0 C 85 % 77 % 0 % 1026,1 hPa 0,0 l/m 7,2 km/h (2 Bft) O-SO 112 0 min 0,1 C -1,3 C 19,5 km/h (3 Bft)
24.12.2016 03:40 2,7 C 2,6 C 2,5 C 2,2 C 1,3 C 0,0 C 85 % 76 % 0 % 1026,1 hPa 0,0 l/m 6,6 km/h (2 Bft) S-SO 157 0 min 0,4 C -0,8 C 3,7 km/h (1 Bft)
24.12.2016 03:45 2,8 C 2,6 C 2,5 C 2,6 C 2,1 C 0,0 C 85 % 76 % 0 % 1026,1 hPa 0,0 l/m 4,7 km/h (1 Bft) O-NO 67 0 min 0,5 C 0,9 C 5,1 km/h (1 Bft)
24.12.2016 03:50 2,8 C 2,6 C 2,7 C 2,6 C 2,3 C 0,0 C 85 % 76 % 0 % 1026,1 hPa 0,0 l/m 4,0 km/h (1 Bft) W-NW 292 0 min 0,5 C 2,3 C 4,3 km/h (1 Bft)
24.12.2016 03:55 2,8 C 2,6 C 2,7 C 2,6 C 2,2 C 0,0 C 85 % 76 % 0 % 1026,1 hPa 0,0 l/m 3,9 km/h (1 Bft) O-SO 112 0 min 0,5 C 2,2 C 1,8 km/h (1 Bft)
24.12.2016 04:00 2,9 C 2,6 C 2,6 C 2,6 C 1,9 C 0,0 C 85 % 76 % 0 % 1026,1 hPa 0,0 l/m 4,7 km/h (1 Bft) W-SW 247 0 min 0,6 C 0,7 C 11,3 km/h (2 Bft)
24.12.2016 04:05 3,1 C 2,6 C 2,6 C 2,8 C 2,1 C 0,0 C 85 % 76 % 0 % 1026,1 hPa 0,0 l/m 4,3 km/h (1 Bft) S-SW 202 0 min 0,8 C 2,1 C 1,8 km/h (1 Bft)
24.12.2016 04:10 3,1 C 2,6 C 2,7 C 2,8 C 2,3 C 0,0 C 85 % 76 % 0 % 1026,1 hPa 0,0 l/m 3,9 km/h (1 Bft) SO 135 0 min 0,8 C 2,3 C 6,8 km/h (2 Bft)
24.12.2016 04:15 3,0 C 2,6 C 2,5 C 2,9 C 2,8 C 0,0 C 84 % 76 % 0 % 1026,1 hPa 0,0 l/m 3,2 km/h (1 Bft) S 180 0 min 0,6 C 2,8 C 1,9 km/h (1 Bft)
24.12.2016 04:20 3,0 C 2,6 C 2,6 C 2,9 C 2,6 C 0,0 C 84 % 76 % 0 % 1026,1 hPa 0,0 l/m 3,4 km/h (1 Bft) W-SW 247 0 min 0,6 C 2,6 C 9,5 km/h (2 Bft)
24.12.2016 04:25 3,1 C 2,6 C 2,7 C 2,9 C 2,5 C 0,0 C 85 % 76 % 0 % 1026,1 hPa 0,0 l/m 3,5 km/h (1 Bft) S-SO 157 0 min 0,8 C 2,5 C 4,7 km/h (1 Bft)
24.12.2016 04:30 3,1 C 2,6 C 2,7 C 2,8 C 2,2 C 0,0 C 85 % 75 % 0 % 1026,1 hPa 0,0 l/m 4,3 km/h (1 Bft) S-SO 157 0 min 0,8 C 2,2 C 11,1 km/h (2 Bft)
24.12.2016 04:35 3,2 C 2,6 C 2,7 C 2,8 C 2,1 C 0,0 C 85 % 76 % 0 % 1026,1 hPa 0,0 l/m 4,7 km/h (1 Bft) S-SO 157 0 min 0,9 C 0,9 C 9,2 km/h (2 Bft)
24.12.2016 04:40 3,3 C 2,6 C 2,8 C 2,8 C 1,8 C 0,0 C 85 % 76 % 0 % 1024,8 hPa 0,0 l/m 5,6 km/h (1 Bft) S-SW 202 0 min 1,0 C 0,2 C 11,1 km/h (2 Bft)
24.12.2016 04:45 3,2 C 2,6 C 2,8 C 2,7 C 1,7 C 0,0 C 85 % 76 % 0 % 1024,8 hPa 0,0 l/m 5,6 km/h (1 Bft) N 360 0 min 0,9 C 0,1 C 3,9 km/h (1 Bft)
24.12.2016 04:50 3,2 C 2,6 C 2,7 C 2,8 C 2,1 C 0,0 C 84 % 76 % 0 % 1024,8 hPa 0,0 l/m 4,3 km/h (1 Bft) S-SO 157 0 min 0,8 C 2,1 C 3,5 km/h (1 Bft)
24.12.2016 04:55 3,2 C 2,6 C 2,7 C 2,9 C 2,2 C 0,0 C 84 % 77 % 0 % 1024,8 hPa 0,0 l/m 4,2 km/h (1 Bft) NW 315 0 min 0,8 C 2,2 C 4,0 km/h (1 Bft)
24.12.2016 05:00 3,3 C 2,7 C 2,7 C 2,8 C 1,9 C 0,0 C 84 % 77 % 0 % 1025,1 hPa 0,0 l/m 4,3 km/h (1 Bft) SO 135 0 min 0,9 C 1,9 C 4,3 km/h (1 Bft)
24.12.2016 05:05 3,3 C 2,7 C 2,7 C 3,0 C 2,3 C 0,0 C 84 % 77 % 0 % 1025,1 hPa 0,0 l/m 3,7 km/h (1 Bft) W 270 0 min 0,9 C 2,3 C 8,5 km/h (2 Bft)
24.12.2016 05:10 3,2 C 2,7 C 2,6 C 2,9 C 2,4 C 0,0 C 84 % 78 % 0 % 1025,1 hPa 0,0 l/m 3,7 km/h (1 Bft) NW 315 0 min 0,8 C 2,4 C 6,0 km/h (2 Bft)
24.12.2016 05:15 3,3 C 2,7 C 2,6 C 2,8 C 1,9 C 0,0 C 84 % 78 % 0 % 1025,1 hPa 0,0 l/m 5,0 km/h (1 Bft) W 270 0 min 0,9 C 0,6 C 14,5 km/h (3 Bft)
24.12.2016 05:20 3,2 C 2,7 C 2,7 C 2,8 C 1,9 C 0,0 C 84 % 78 % 0 % 1025,0 hPa 0,0 l/m 5,5 km/h (1 Bft) S-SO 157 0 min 0,8 C 0,4 C 4,3 km/h (1 Bft)
24.12.2016 05:25 3,3 C 2,7 C 2,8 C 2,9 C 2,0 C 0,0 C 84 % 79 % 0 % 1025,0 hPa 0,0 l/m 5,6 km/h (1 Bft) N-NW 337 0 min 0,9 C 0,4 C 5,6 km/h (1 Bft)
24.12.2016 05:30 3,4 C 2,7 C 3,0 C 3,0 C 2,2 C 0,0 C 84 % 79 % 0 % 1025,0 hPa 0,0 l/m 5,5 km/h (1 Bft) W-SW 247 0 min 1,0 C 0,7 C 4,2 km/h (1 Bft)
24.12.2016 05:35 3,4 C 2,7 C 3,1 C 3,1 C 2,5 C 0,0 C 84 % 80 % 0 % 1025,0 hPa 0,0 l/m 5,5 km/h (1 Bft) SW 225 0 min 1,0 C 1,0 C 3,4 km/h (1 Bft)
24.12.2016 05:40 3,5 C 2,6 C 3,1 C 3,3 C 2,9 C 0,0 C 84 % 81 % 0 % 1025,0 hPa 0,0 l/m 4,8 km/h (1 Bft) SW 225 0 min 1,1 C 1,8 C 10,1 km/h (2 Bft)
24.12.2016 05:50 3,6 C 2,6 C 3,2 C 3,5 C 3,2 C 0,0 C 84 % 82 % 0 % 1025,0 hPa 0,0 l/m 4,7 km/h (1 Bft) NW 315 0 min 1,2 C 2,2 C 3,5 km/h (1 Bft)
24.12.2016 05:55 3,6 C 2,6 C 3,4 C 3,5 C 3,4 C 0,0 C 84 % 83 % 0 % 1025,0 hPa 0,0 l/m 4,5 km/h (1 Bft) N-NO 22 0 min 1,2 C 3,4 C 2,6 km/h (1 Bft)
24.12.2016 06:00 3,7 C 2,6 C 3,5 C 3,8 C 3,8 C 0,1 C 84 % 83 % 0 % 1024,7 hPa 0,0 l/m 4,0 km/h (1 Bft) W 270 0 min 1,3 C 3,8 C 5,6 km/h (1 Bft)
24.12.2016 06:05 3,8 C 2,6 C 3,5 C 3,8 C 3,7 C 0,0 C 84 % 84 % 0 % 1024,7 hPa 0,0 l/m 4,2 km/h (1 Bft) S-SO 157 0 min 1,4 C 3,7 C 3,4 km/h (1 Bft)
24.12.2016 06:10 3,9 C 2,6 C 3,6 C 3,9 C 3,9 C 0,0 C 84 % 85 % 0 % 1024,7 hPa 0,0 l/m 4,0 km/h (1 Bft) SW 225 0 min 1,4 C 3,9 C 9,0 km/h (2 Bft)
24.12.2016 06:15 3,9 C 2,6 C 3,5 C 3,8 C 3,7 C 0,0 C 84 % 85 % 0 % 1024,7 hPa 0,0 l/m 4,5 km/h (1 Bft) W-SW 247 0 min 1,4 C 3,7 C 3,2 km/h (1 Bft)
24.12.2016 06:20 3,9 C 2,6 C 3,6 C 3,7 C 3,4 C 0,0 C 84 % 85 % 0 % 1024,7 hPa 0,0 l/m 5,1 km/h (1 Bft) W-SW 247 0 min 1,4 C 2,2 C 4,8 km/h (1 Bft)
24.12.2016 06:25 3,9 C 2,6 C 3,6 C 3,8 C 3,6 C 0,0 C 84 % 85 % 0 % 1024,7 hPa 0,0 l/m 5,0 km/h (1 Bft) W 270 0 min 1,4 C 2,5 C 5,3 km/h (1 Bft)
24.12.2016 06:30 3,9 C 2,6 C 3,6 C 3,9 C 3,8 C 0,0 C 84 % 85 % 0 % 1024,7 hPa 0,0 l/m 4,5 km/h (1 Bft) W-SW 247 0 min 1,4 C 3,8 C 10,5 km/h (2 Bft)
24.12.2016 06:35 4,0 C 2,8 C 3,8 C 3,9 C 3,8 C 0,0 C 84 % 85 % 0 % 1024,7 hPa 0,0 l/m 4,5 km/h (1 Bft) W-NW 292 0 min 1,5 C 3,8 C 8,5 km/h (2 Bft)
24.12.2016 06:40 4,0 C 2,8 C 3,9 C 3,9 C 3,8 C 0,0 C 83 % 86 % 0 % 1024,7 hPa 0,0 l/m 4,7 km/h (1 Bft) SO 135 0 min 1,4 C 2,8 C 3,2 km/h (1 Bft)
24.12.2016 06:45 4,1 C 2,8 C 3,9 C 4,0 C 3,8 C 0,0 C 83 % 87 % 0 % 1024,7 hPa 0,0 l/m 4,8 km/h (1 Bft) W 270 0 min 1,5 C 2,8 C 4,0 km/h (1 Bft)
24.12.2016 06:50 4,2 C 2,8 C 3,9 C 4,0 C 3,7 C 0,0 C 83 % 87 % 0 % 1024,7 hPa 0,0 l/m 5,1 km/h (1 Bft) NW 315 0 min 1,6 C 2,6 C 7,7 km/h (2 Bft)
24.12.2016 06:55 4,3 C 2,8 C 4,0 C 4,1 C 3,7 C 0,0 C 83 % 88 % 0 % 1024,7 hPa 0,0 l/m 5,5 km/h (1 Bft) W 270 0 min 1,7 C 2,4 C 8,7 km/h (2 Bft)
24.12.2016 07:00 4,3 C 2,8 C 4,0 C 4,2 C 4,0 C 0,0 C 83 % 88 % 0 % 1024,6 hPa 0,0 l/m 4,5 km/h (1 Bft) SO 135 0 min 1,7 C 4,0 C 2,6 km/h (1 Bft)
24.12.2016 07:05 4,3 C 2,8 C 4,0 C 4,3 C 4,2 C 0,0 C 83 % 88 % 0 % 1024,6 hPa 0,0 l/m 4,0 km/h (1 Bft) S-SO 157 0 min 1,7 C 4,2 C 3,9 km/h (1 Bft)
24.12.2016 07:10 4,3 C 2,8 C 4,1 C 4,3 C 4,3 C 0,0 C 83 % 88 % 0 % 1024,6 hPa 0,0 l/m 4,3 km/h (1 Bft) NW 315 0 min 1,7 C 4,3 C 7,9 km/h (2 Bft)
24.12.2016 07:15 4,3 C 2,8 C 4,0 C 4,7 C 4,7 C 0,4 C 83 % 88 % 0 % 1024,6 hPa 0,0 l/m 3,7 km/h (1 Bft) S 180 0 min 1,7 C 4,7 C 6,9 km/h (2 Bft)
24.12.2016 07:20 4,3 C 2,8 C 4,0 C 4,8 C 4,8 C 0,5 C 83 % 88 % 0 % 1024,6 hPa 0,0 l/m 3,4 km/h (1 Bft) W-SW 247 0 min 1,7 C 4,8 C 7,7 km/h (2 Bft)
24.12.2016 07:25 4,4 C 2,8 C 4,0 C 4,9 C 4,9 C 0,5 C 83 % 88 % 0 % 1024,6 hPa 0,0 l/m 3,2 km/h (1 Bft) S-SO 157 0 min 1,8 C 4,9 C 6,0 km/h (2 Bft)
24.12.2016 07:30 4,4 C 2,8 C 4,1 C 4,5 C 4,5 C 0,1 C 83 % 88 % 0 % 1024,6 hPa 0,0 l/m 3,5 km/h (1 Bft) N 360 0 min 1,8 C 4,5 C 5,1 km/h (1 Bft)
24.12.2016 07:35 4,3 C 2,8 C 4,1 C 4,5 C 4,5 C 0,2 C 83 % 88 % 0 % 1024,6 hPa 0,0 l/m 4,0 km/h (1 Bft) O-NO 67 0 min 1,7 C 4,5 C 3,2 km/h (1 Bft)
24.12.2016 07:40 4,4 C 2,8 C 4,1 C 4,4 C 4,4 C 0,0 C 83 % 89 % 0 % 1024,2 hPa 0,0 l/m 4,2 km/h (1 Bft) O-NO 67 0 min 1,8 C 4,4 C 2,7 km/h (1 Bft)
24.12.2016 07:45 4,5 C 2,8 C 4,2 C 4,5 C 4,4 C 0,0 C 83 % 89 % 0 % 1024,2 hPa 0,0 l/m 4,2 km/h (1 Bft) W 270 0 min 1,9 C 4,4 C 6,0 km/h (2 Bft)
24.12.2016 07:50 4,4 C 2,9 C 4,3 C 4,7 C 4,7 C 0,3 C 83 % 89 % 0 % 1024,2 hPa 0,0 l/m 3,5 km/h (1 Bft) NW 315 0 min 1,8 C 4,7 C 3,7 km/h (1 Bft)
24.12.2016 07:55 4,5 C 2,9 C 4,2 C 4,6 C 4,6 C 0,1 C 83 % 89 % 0 % 1024,2 hPa 0,0 l/m 3,9 km/h (1 Bft) SW 225 0 min 1,9 C 4,6 C 9,5 km/h (2 Bft)
24.12.2016 08:00 4,5 C 2,9 C 4,3 C 4,5 C 4,4 C 0,0 C 83 % 89 % 0 % 1024,7 hPa 0,0 l/m 4,2 km/h (1 Bft) S-SW 202 0 min 1,9 C 4,4 C 5,8 km/h (2 Bft)
24.12.2016 08:05 4,5 C 2,9 C 4,3 C 4,5 C 4,4 C 0,0 C 83 % 89 % 0 % 1024,7 hPa 0,0 l/m 4,2 km/h (1 Bft) O 90 0 min 1,9 C 4,4 C 4,5 km/h (1 Bft)
24.12.2016 08:10 4,5 C 2,9 C 4,3 C 4,8 C 4,8 C 0,3 C 83 % 89 % 0 % 1024,7 hPa 0,0 l/m 3,4 km/h (1 Bft) S 180 0 min 1,9 C 4,8 C 3,4 km/h (1 Bft)
24.12.2016 08:15 4,5 C 2,9 C 4,3 C 5,0 C 5,0 C 0,5 C 83 % 89 % 0 % 1024,7 hPa 0,0 l/m 2,6 km/h (1 Bft) S 180 0 min 1,9 C 5,0 C 2,7 km/h (1 Bft)
24.12.2016 08:20 4,4 C 2,9 C 4,3 C 5,0 C 5,0 C 0,6 C 83 % 89 % 0 % 1024,7 hPa 0,0 l/m 2,7 km/h (1 Bft) W-SW 247 0 min 1,8 C 5,0 C 5,5 km/h (1 Bft)
24.12.2016 08:25 4,3 C 2,9 C 4,0 C 4,2 C 4,1 C 0,0 C 83 % 89 % 0 % 1024,7 hPa 0,0 l/m 3,5 km/h (1 Bft) SW 225 0 min 1,7 C 4,1 C 8,2 km/h (2 Bft)
24.12.2016 08:30 4,2 C 2,9 C 4,0 C 4,0 C 3,6 C 0,0 C 83 % 88 % 0 % 1024,7 hPa 0,0 l/m 4,0 km/h (1 Bft) S 180 0 min 1,6 C 3,6 C 10,0 km/h (2 Bft)
24.12.2016 08:35 4,3 C 2,9 C 4,0 C 4,0 C 3,4 C 0,0 C 84 % 88 % 0 % 1024,7 hPa 0,0 l/m 4,2 km/h (1 Bft) W 270 0 min 1,8 C 3,4 C 1,9 km/h (1 Bft)
24.12.2016 08:40 4,1 C 3,0 C 4,0 C 3,9 C 3,6 C 0,0 C 84 % 88 % 0 % 1024,9 hPa 0,0 l/m 3,5 km/h (1 Bft) W 270 0 min 1,6 C 3,6 C 2,9 km/h (1 Bft)
24.12.2016 08:45 4,0 C 3,0 C 3,9 C 3,9 C 3,8 C 0,0 C 84 % 88 % 0 % 1024,9 hPa 0,0 l/m 3,1 km/h (1 Bft) W-SW 247 0 min 1,5 C 3,8 C 0,0 km/h (0 Bft)
24.12.2016 08:50 3,9 C 3,0 C 3,9 C 3,9 C 3,8 C 0,0 C 84 % 88 % 0 % 1024,9 hPa 0,0 l/m 2,9 km/h (1 Bft) W 270 0 min 1,4 C 3,8 C 2,6 km/h (1 Bft)
24.12.2016 08:55 3,9 C 3,0 C 3,9 C 3,9 C 3,8 C 0,0 C 85 % 87 % 0 % 1024,9 hPa 0,0 l/m 2,9 km/h (1 Bft) W 270 0 min 1,6 C 3,8 C 8,7 km/h (2 Bft)
24.12.2016 09:00 3,8 C 3,0 C 3,9 C 3,7 C 3,5 C 0,0 C 85 % 87 % 0 % 1024,6 hPa 0,0 l/m 3,5 km/h (1 Bft) S-SW 202 0 min 1,5 C 3,5 C 6,9 km/h (2 Bft)
24.12.2016 09:05 3,7 C 3,0 C 3,9 C 3,5 C 3,1 C 0,0 C 85 % 87 % 0 % 1024,6 hPa 0,0 l/m 4,7 km/h (1 Bft) S 180 0 min 1,4 C 2,1 C 6,6 km/h (2 Bft)
24.12.2016 09:10 3,7 C 3,0 C 3,9 C 3,5 C 3,2 C 0,0 C 85 % 86 % 0 % 1024,6 hPa 0,0 l/m 4,5 km/h (1 Bft) S 180 0 min 1,4 C 3,2 C 5,8 km/h (2 Bft)
24.12.2016 09:15 3,6 C 3,0 C 3,9 C 3,6 C 3,6 C 0,0 C 85 % 86 % 0 % 1024,6 hPa 0,0 l/m 3,5 km/h (1 Bft) S-SW 202 0 min 1,3 C 3,6 C 6,3 km/h (2 Bft)
24.12.2016 09:20 3,7 C 3,0 C 3,8 C 3,7 C 3,7 C 0,0 C 85 % 86 % 0 % 1024,9 hPa 0,0 l/m 3,4 km/h (1 Bft) W-SW 247 0 min 1,4 C 3,7 C 8,4 km/h (2 Bft)
24.12.2016 09:25 3,6 C 3,1 C 3,9 C 3,6 C 3,6 C 0,0 C 85 % 86 % 0 % 1024,9 hPa 0,0 l/m 3,5 km/h (1 Bft) N-NO 22 0 min 1,3 C 3,6 C 6,1 km/h (2 Bft)
24.12.2016 09:30 3,6 C 3,1 C 3,9 C 3,8 C 3,8 C 0,2 C 85 % 85 % 5 % 1024,9 hPa 0,0 l/m 3,2 km/h (1 Bft) SW 225 0 min 1,3 C 3,8 C 4,5 km/h (1 Bft)
24.12.2016 09:35 3,5 C 3,1 C 3,9 C 3,6 C 3,6 C 0,1 C 85 % 85 % 3 % 1024,9 hPa 0,0 l/m 3,7 km/h (1 Bft) S 180 0 min 1,2 C 3,6 C 4,0 km/h (1 Bft)
24.12.2016 09:40 3,5 C 3,1 C 3,9 C 3,5 C 3,4 C 0,0 C 85 % 85 % 0 % 1024,9 hPa 0,7 l/m 4,2 km/h (1 Bft) S 180 0 min 1,2 C 3,4 C 3,5 km/h (1 Bft)
24.12.2016 09:45 3,5 C 3,1 C 3,8 C 3,5 C 3,4 C 0,0 C 85 % 85 % 0 % 1024,9 hPa 0,0 l/m 4,2 km/h (1 Bft) SW 225 0 min 1,2 C 3,4 C 6,1 km/h (2 Bft)
24.12.2016 09:50 3,3 C 3,2 C 3,8 C 3,3 C 3,2 C 0,0 C 85 % 84 % 0 % 1024,9 hPa 0,0 l/m 4,7 km/h (1 Bft) W-NW 292 0 min 1,0 C 2,2 C 3,7 km/h (1 Bft)
24.12.2016 09:55 3,2 C 3,2 C 3,8 C 3,2 C 3,2 C 0,0 C 85 % 84 % 0 % 1024,9 hPa 0,0 l/m 4,7 km/h (1 Bft) O-NO 67 0 min 0,9 C 2,2 C 3,1 km/h (1 Bft)
24.12.2016 10:00 3,2 C 3,2 C 3,8 C 3,6 C 3,6 C 0,4 C 85 % 83 % 11 % 1024,8 hPa 0,0 l/m 3,7 km/h (1 Bft) W 270 0 min 0,9 C 3,6 C 5,8 km/h (2 Bft)
24.12.2016 10:05 3,2 C 3,2 C 3,9 C 3,9 C 3,9 C 0,7 C 86 % 83 % 18 % 1024,8 hPa 0,7 l/m 3,2 km/h (1 Bft) S 180 0 min 1,1 C 3,9 C 1,9 km/h (1 Bft)
24.12.2016 10:10 3,1 C 3,2 C 3,9 C 3,9 C 3,9 C 0,8 C 86 % 82 % 21 % 1024,8 hPa 0,0 l/m 3,2 km/h (1 Bft) O-SO 112 0 min 1,0 C 3,9 C 2,1 km/h (1 Bft)
24.12.2016 10:15 3,1 C 3,2 C 3,9 C 3,8 C 3,8 C 0,7 C 86 % 81 % 18 % 1024,8 hPa 0,0 l/m 3,4 km/h (1 Bft) NO 45 0 min 1,0 C 3,8 C 2,6 km/h (1 Bft)
24.12.2016 10:20 3,1 C 3,2 C 3,9 C 3,6 C 3,6 C 0,5 C 86 % 81 % 13 % 1024,8 hPa 0,0 l/m 3,9 km/h (1 Bft) O-SO 112 0 min 1,0 C 3,6 C 2,4 km/h (1 Bft)
24.12.2016 10:25 3,1 C 3,2 C 3,9 C 3,6 C 3,6 C 0,5 C 86 % 80 % 13 % 1024,8 hPa 0,0 l/m 4,0 km/h (1 Bft) N-NO 22 0 min 1,0 C 3,6 C 5,5 km/h (1 Bft)
24.12.2016 10:30 3,1 C 3,2 C 3,9 C 3,7 C 3,7 C 0,6 C 86 % 80 % 16 % 1024,8 hPa 0,0 l/m 4,0 km/h (1 Bft) O-NO 67 0 min 1,0 C 3,7 C 9,8 km/h (2 Bft)
24.12.2016 10:35 3,2 C 3,2 C 4,0 C 4,2 C 4,2 C 1,0 C 86 % 80 % 26 % 1024,8 hPa 0,0 l/m 3,4 km/h (1 Bft) W-SW 247 0 min 1,1 C 4,2 C 4,5 km/h (1 Bft)
24.12.2016 10:40 3,2 C 3,2 C 4,1 C 4,0 C 4,0 C 0,8 C 86 % 79 % 21 % 1024,8 hPa 0,0 l/m 3,7 km/h (1 Bft) S 180 0 min 1,1 C 4,0 C 4,5 km/h (1 Bft)
24.12.2016 10:45 3,2 C 3,2 C 4,0 C 4,2 C 4,2 C 1,0 C 86 % 79 % 26 % 1024,8 hPa 0,0 l/m 3,2 km/h (1 Bft) S 180 0 min 1,1 C 4,2 C 4,3 km/h (1 Bft)
24.12.2016 10:50 3,2 C 3,2 C 4,0 C 4,5 C 4,5 C 1,3 C 86 % 79 % 34 % 1024,8 hPa 0,0 l/m 2,7 km/h (1 Bft) S-SW 202 0 min 1,1 C 4,5 C 3,7 km/h (1 Bft)
24.12.2016 10:55 3,2 C 3,2 C 4,3 C 4,4 C 4,4 C 1,2 C 86 % 78 % 32 % 1024,8 hPa 0,0 l/m 3,2 km/h (1 Bft) S-SO 157 0 min 1,1 C 4,4 C 4,5 km/h (1 Bft)
24.12.2016 11:00 3,2 C 3,2 C 4,3 C 4,1 C 4,1 C 0,9 C 86 % 78 % 24 % 1024,5 hPa 0,0 l/m 4,0 km/h (1 Bft) S-SO 157 0 min 1,1 C 4,1 C 5,5 km/h (1 Bft)
24.12.2016 11:05 3,2 C 3,2 C 4,3 C 4,2 C 4,2 C 1,0 C 86 % 78 % 26 % 1024,5 hPa 0,0 l/m 4,0 km/h (1 Bft) W 270 0 min 1,1 C 4,2 C 9,7 km/h (2 Bft)
24.12.2016 11:10 3,3 C 3,2 C 4,2 C 4,0 C 4,0 C 0,7 C 86 % 78 % 18 % 1024,5 hPa 0,0 l/m 4,5 km/h (1 Bft) S-SO 157 0 min 1,2 C 4,0 C 7,7 km/h (2 Bft)
24.12.2016 11:15 3,3 C 3,2 C 4,3 C 4,0 C 4,0 C 0,7 C 86 % 78 % 18 % 1024,5 hPa 0,0 l/m 5,1 km/h (1 Bft) W-SW 247 0 min 1,2 C 2,9 C 8,4 km/h (2 Bft)
24.12.2016 11:20 3,4 C 3,2 C 4,3 C 4,2 C 4,2 C 0,8 C 86 % 78 % 21 % 1024,5 hPa 0,0 l/m 5,0 km/h (1 Bft) O-SO 112 0 min 1,3 C 3,2 C 2,4 km/h (1 Bft)
24.12.2016 11:25 3,5 C 3,2 C 4,4 C 4,7 C 4,7 C 1,2 C 86 % 77 % 32 % 1024,5 hPa 0,0 l/m 4,2 km/h (1 Bft) W-SW 247 0 min 1,4 C 4,7 C 6,0 km/h (2 Bft)
24.12.2016 11:30 3,5 C 3,2 C 4,4 C 4,9 C 4,9 C 1,4 C 86 % 77 % 37 % 1024,5 hPa 0,0 l/m 3,7 km/h (1 Bft) SW 225 0 min 1,4 C 4,9 C 7,1 km/h (2 Bft)
24.12.2016 11:35 3,5 C 3,2 C 4,4 C 5,0 C 5,0 C 1,5 C 86 % 77 % 39 % 1024,5 hPa 0,0 l/m 3,5 km/h (1 Bft) W 270 0 min 1,4 C 5,0 C 8,7 km/h (2 Bft)
24.12.2016 11:40 3,5 C 3,2 C 4,4 C 4,8 C 4,8 C 1,3 C 86 % 77 % 34 % 1024,5 hPa 0,0 l/m 3,9 km/h (1 Bft) S 180 0 min 1,4 C 4,8 C 4,3 km/h (1 Bft)
24.12.2016 11:45 3,5 C 3,4 C 4,4 C 5,2 C 5,2 C 1,7 C 86 % 77 % 45 % 1024,5 hPa 0,0 l/m 3,4 km/h (1 Bft) SW 225 0 min 1,4 C 5,2 C 8,9 km/h (2 Bft)
24.12.2016 11:50 3,6 C 3,4 C 4,4 C 5,2 C 5,2 C 1,6 C 86 % 77 % 42 % 1024,5 hPa 0,0 l/m 3,5 km/h (1 Bft) SW 225 0 min 1,5 C 5,2 C 3,5 km/h (1 Bft)
24.12.2016 11:55 3,6 C 3,4 C 4,4 C 4,8 C 4,8 C 1,2 C 86 % 77 % 32 % 1024,5 hPa 0,0 l/m 4,2 km/h (1 Bft) SW 225 0 min 1,5 C 4,8 C 5,3 km/h (1 Bft)
24.12.2016 12:00 3,6 C 3,4 C 4,4 C 4,9 C 4,9 C 1,3 C 86 % 77 % 34 % 1024,5 hPa 0,0 l/m 4,0 km/h (1 Bft) N 360 0 min 1,5 C 4,9 C 2,9 km/h (1 Bft)
24.12.2016 12:05 3,7 C 3,4 C 4,4 C 5,1 C 5,1 C 1,4 C 86 % 77 % 37 % 1024,5 hPa 0,0 l/m 3,7 km/h (1 Bft) S-SO 157 0 min 1,6 C 5,1 C 12,7 km/h (3 Bft)
24.12.2016 12:10 3,8 C 3,4 C 4,6 C 5,3 C 5,3 C 1,5 C 86 % 77 % 39 % 1024,5 hPa 0,0 l/m 3,7 km/h (1 Bft) S-SO 157 0 min 1,7 C 5,3 C 4,2 km/h (1 Bft)
24.12.2016 12:15 3,9 C 3,4 C 4,7 C 5,4 C 5,4 C 1,5 C 85 % 77 % 39 % 1024,5 hPa 0,0 l/m 3,7 km/h (1 Bft) NO 45 0 min 1,6 C 5,4 C 8,4 km/h (2 Bft)
24.12.2016 12:20 3,9 C 3,4 C 4,7 C 5,2 C 5,2 C 1,3 C 85 % 77 % 34 % 1024,5 hPa 0,0 l/m 4,2 km/h (1 Bft) W 270 0 min 1,6 C 5,2 C 5,5 km/h (1 Bft)
24.12.2016 12:25 4,0 C 3,4 C 4,7 C 4,3 C 4,3 C 0,3 C 85 % 77 % 8 % 1024,5 hPa 0,0 l/m 7,2 km/h (2 Bft) SW 225 0 min 1,7 C 2,5 C 16,4 km/h (3 Bft)
24.12.2016 12:30 4,1 C 3,3 C 4,7 C 4,3 C 4,3 C 0,2 C 85 % 77 % 5 % 1024,5 hPa 0,0 l/m 7,9 km/h (2 Bft) W-SW 247 0 min 1,8 C 2,3 C 10,9 km/h (2 Bft)
24.12.2016 12:35 4,2 C 3,3 C 4,8 C 4,8 C 4,2 C 0,6 C 85 % 77 % 16 % 1024,5 hPa 0,0 l/m 8,7 km/h (2 Bft) W 270 0 min 1,9 C 2,0 C 14,3 km/h (3 Bft)
24.12.2016 12:40 4,4 C 3,3 C 4,8 C 4,9 C 4,3 C 0,5 C 85 % 77 % 13 % 1023,9 hPa 0,0 l/m 8,5 km/h (2 Bft) W-SW 247 0 min 2,1 C 2,2 C 7,4 km/h (2 Bft)
24.12.2016 12:45 4,5 C 3,3 C 4,8 C 4,4 C 4,3 C 0,0 C 85 % 77 % 0 % 1023,9 hPa 0,0 l/m 8,5 km/h (2 Bft) S 180 0 min 2,2 C 2,2 C 9,3 km/h (2 Bft)
24.12.2016 12:50 4,7 C 3,3 C 4,8 C 5,0 C 4,4 C 0,3 C 85 % 77 % 8 % 1023,9 hPa 0,0 l/m 8,7 km/h (2 Bft) W-SW 247 0 min 2,4 C 2,2 C 11,9 km/h (2 Bft)
24.12.2016 12:55 4,7 C 3,3 C 5,2 C 5,5 C 5,2 C 0,8 C 85 % 77 % 21 % 1023,9 hPa 0,0 l/m 8,0 km/h (2 Bft) W-SW 247 0 min 2,4 C 3,4 C 8,5 km/h (2 Bft)
24.12.2016 13:00 4,9 C 3,5 C 5,2 C 6,0 C 6,0 C 1,1 C 85 % 77 % 29 % 1023,8 hPa 0,0 l/m 7,6 km/h (2 Bft) S-SW 202 0 min 2,6 C 4,4 C 8,9 km/h (2 Bft)
24.12.2016 13:05 5,1 C 3,5 C 5,5 C 6,6 C 6,6 C 1,5 C 84 % 78 % 39 % 1023,8 hPa 0,0 l/m 7,1 km/h (2 Bft) NW 315 0 min 2,6 C 5,2 C 9,7 km/h (2 Bft)
24.12.2016 13:10 5,1 C 3,5 C 5,6 C 6,9 C 6,9 C 1,8 C 84 % 78 % 47 % 1023,8 hPa 0,0 l/m 6,0 km/h (2 Bft) SW 225 0 min 2,6 C 5,9 C 2,4 km/h (1 Bft)
24.12.2016 13:15 5,2 C 3,5 C 5,6 C 7,2 C 7,2 C 2,0 C 84 % 78 % 53 % 1023,8 hPa 0,0 l/m 5,1 km/h (1 Bft) W-SW 247 0 min 2,7 C 6,5 C 8,9 km/h (2 Bft)
24.12.2016 13:20 5,3 C 3,5 C 5,7 C 6,9 C 6,9 C 1,6 C 84 % 79 % 42 % 1023,4 hPa 0,0 l/m 5,3 km/h (1 Bft) SW 225 0 min 2,8 C 6,1 C 7,2 km/h (2 Bft)
24.12.2016 13:25 5,5 C 3,5 C 5,7 C 6,8 C 6,8 C 1,3 C 84 % 79 % 34 % 1023,4 hPa 0,0 l/m 6,0 km/h (2 Bft) O-SO 112 0 min 3,0 C 5,8 C 5,5 km/h (1 Bft)
24.12.2016 13:30 5,6 C 3,5 C 5,5 C 6,7 C 6,7 C 1,1 C 84 % 80 % 29 % 1023,4 hPa 0,0 l/m 5,8 km/h (2 Bft) N-NO 22 0 min 3,1 C 5,7 C 4,5 km/h (1 Bft)
24.12.2016 13:35 5,6 C 3,5 C 5,6 C 6,6 C 6,6 C 1,0 C 84 % 81 % 26 % 1023,4 hPa 0,0 l/m 5,3 km/h (1 Bft) O-NO 67 0 min 3,1 C 5,8 C 10,9 km/h (2 Bft)
24.12.2016 13:40 5,7 C 3,5 C 5,7 C 6,7 C 6,7 C 1,0 C 84 % 81 % 26 % 1023,4 hPa 0,0 l/m 5,5 km/h (1 Bft) S-SW 202 0 min 3,2 C 5,8 C 10,0 km/h (2 Bft)
24.12.2016 13:45 5,8 C 3,4 C 5,8 C 7,8 C 7,8 C 2,0 C 84 % 81 % 53 % 1023,4 hPa 0,0 l/m 4,3 km/h (1 Bft) S-SO 157 0 min 3,3 C 7,8 C 0,0 km/h (0 Bft)
24.12.2016 13:50 5,9 C 3,4 C 6,0 C 8,5 C 8,5 C 2,6 C 84 % 81 % 68 % 1023,4 hPa 0,0 l/m 3,4 km/h (1 Bft) O 90 0 min 3,4 C 8,5 C 3,4 km/h (1 Bft)
24.12.2016 13:55 6,0 C 3,5 C 6,3 C 8,8 C 8,8 C 2,8 C 84 % 81 % 74 % 1023,4 hPa 0,0 l/m 2,6 km/h (1 Bft) W 270 0 min 3,5 C 8,8 C 2,4 km/h (1 Bft)
24.12.2016 14:00 6,1 C 3,5 C 6,2 C 8,4 C 8,4 C 2,3 C 83 % 82 % 61 % 1023,4 hPa 0,0 l/m 4,0 km/h (1 Bft) S-SO 157 0 min 3,4 C 8,4 C 7,7 km/h (2 Bft)
24.12.2016 14:05 6,3 C 3,5 C 6,3 C 7,5 C 7,5 C 1,2 C 83 % 82 % 32 % 1023,4 hPa 0,0 l/m 6,0 km/h (2 Bft) W-SW 247 0 min 3,6 C 6,6 C 5,5 km/h (1 Bft)
24.12.2016 14:10 6,3 C 3,5 C 6,3 C 7,3 C 7,3 C 1,0 C 83 % 82 % 26 % 1023,4 hPa 0,0 l/m 6,3 km/h (2 Bft) S-SO 157 0 min 3,6 C 6,3 C 11,3 km/h (2 Bft)
24.12.2016 14:15 6,2 C 3,5 C 5,9 C 6,3 C 6,3 C 0,1 C 82 % 83 % 3 % 1023,4 hPa 0,0 l/m 7,1 km/h (2 Bft) SW 225 0 min 3,4 C 4,9 C 7,7 km/h (2 Bft)
24.12.2016 14:20 6,1 C 3,5 C 5,8 C 6,4 C 5,7 C 0,3 C 82 % 84 % 8 % 1023,5 hPa 0,0 l/m 8,0 km/h (2 Bft) SW 225 0 min 3,3 C 4,0 C 10,3 km/h (2 Bft)
24.12.2016 14:25 6,0 C 3,6 C 5,7 C 6,0 C 5,1 C 0,0 C 82 % 84 % 0 % 1023,5 hPa 0,0 l/m 8,7 km/h (2 Bft) SW 225 0 min 3,2 C 3,1 C 11,9 km/h (2 Bft)
24.12.2016 14:30 5,9 C 3,6 C 5,7 C 5,8 C 4,8 C 0,0 C 83 % 84 % 0 % 1023,5 hPa 0,0 l/m 8,2 km/h (2 Bft) SO 135 0 min 3,2 C 2,8 C 8,2 km/h (2 Bft)
24.12.2016 14:35 5,6 C 3,6 C 5,4 C 5,2 C 4,3 C 0,0 C 83 % 84 % 0 % 1023,5 hPa 0,0 l/m 7,6 km/h (2 Bft) SW 225 0 min 2,9 C 2,4 C 6,9 km/h (2 Bft)
24.12.2016 14:40 5,5 C 3,7 C 5,3 C 5,1 C 4,3 C 0,0 C 84 % 84 % 0 % 1023,1 hPa 0,0 l/m 6,9 km/h (2 Bft) W 270 0 min 3,0 C 2,6 C 5,8 km/h (2 Bft)
24.12.2016 14:45 5,3 C 3,7 C 5,2 C 5,0 C 4,3 C 0,0 C 84 % 84 % 0 % 1023,1 hPa 0,0 l/m 6,3 km/h (2 Bft) S-SW 202 0 min 2,8 C 2,8 C 7,4 km/h (2 Bft)
24.12.2016 14:50 5,2 C 3,7 C 5,2 C 4,8 C 4,1 C 0,0 C 84 % 83 % 0 % 1023,1 hPa 0,0 l/m 6,4 km/h (2 Bft) N 360 0 min 2,7 C 2,6 C 6,8 km/h (2 Bft)
24.12.2016 14:55 5,1 C 3,7 C 5,1 C 4,8 C 4,2 C 0,0 C 84 % 83 % 0 % 1023,1 hPa 0,0 l/m 6,0 km/h (2 Bft) W-SW 247 0 min 2,6 C 2,8 C 6,8 km/h (2 Bft)
24.12.2016 15:00 5,1 C 3,7 C 5,1 C 4,8 C 4,2 C 0,0 C 84 % 82 % 0 % 1023,5 hPa 0,0 l/m 5,8 km/h (2 Bft) S 180 0 min 2,6 C 2,9 C 6,1 km/h (2 Bft)
24.12.2016 15:05 4,9 C 3,7 C 5,1 C 4,7 C 4,4 C 0,0 C 84 % 82 % 0 % 1023,5 hPa 0,0 l/m 5,3 km/h (1 Bft) SW 225 0 min 2,4 C 3,3 C 4,5 km/h (1 Bft)
24.12.2016 15:10 4,9 C 3,7 C 4,9 C 4,7 C 4,4 C 0,0 C 85 % 82 % 0 % 1023,5 hPa 0,0 l/m 5,1 km/h (1 Bft) S-SW 202 0 min 2,6 C 3,4 C 4,2 km/h (1 Bft)
24.12.2016 15:15 4,8 C 3,7 C 5,0 C 4,9 C 4,9 C 0,1 C 85 % 82 % 3 % 1023,5 hPa 0,0 l/m 4,0 km/h (1 Bft) S-SW 202 0 min 2,5 C 4,9 C 2,3 km/h (1 Bft)
24.12.2016 15:20 4,8 C 3,7 C 5,1 C 5,3 C 5,3 C 0,5 C 85 % 81 % 13 % 1023,5 hPa 0,0 l/m 3,2 km/h (1 Bft) NW 315 0 min 2,5 C 5,3 C 1,8 km/h (1 Bft)
24.12.2016 15:25 4,8 C 3,7 C 5,0 C 5,0 C 5,0 C 0,2 C 85 % 81 % 5 % 1023,5 hPa 0,0 l/m 3,9 km/h (1 Bft) W-SW 247 0 min 2,5 C 5,0 C 9,5 km/h (2 Bft)
24.12.2016 15:30 4,8 C 3,7 C 4,9 C 4,9 C 4,9 C 0,1 C 84 % 81 % 3 % 1023,5 hPa 0,0 l/m 4,3 km/h (1 Bft) W-SW 247 0 min 2,3 C 4,9 C 7,6 km/h (2 Bft)
24.12.2016 15:35 5,1 C 3,7 C 5,1 C 4,9 C 4,4 C 0,0 C 84 % 81 % 0 % 1023,5 hPa 0,0 l/m 6,4 km/h (2 Bft) SW 225 0 min 2,6 C 2,9 C 7,7 km/h (2 Bft)
24.12.2016 15:40 5,1 C 3,7 C 5,1 C 4,8 C 4,1 C 0,0 C 84 % 81 % 0 % 1022,8 hPa 0,0 l/m 7,6 km/h (2 Bft) SW 225 0 min 2,6 C 2,2 C 11,9 km/h (2 Bft)
24.12.2016 15:45 5,3 C 3,7 C 5,0 C 4,9 C 4,1 C 0,0 C 84 % 81 % 0 % 1022,8 hPa 0,0 l/m 8,4 km/h (2 Bft) W-SW 247 0 min 2,8 C 2,0 C 12,2 km/h (2 Bft)
24.12.2016 15:50 5,5 C 3,7 C 5,1 C 5,3 C 4,3 C 0,0 C 84 % 81 % 0 % 1022,8 hPa 0,0 l/m 8,0 km/h (2 Bft) NW 315 0 min 3,0 C 2,3 C 7,1 km/h (2 Bft)
24.12.2016 15:55 5,5 C 3,7 C 5,0 C 5,2 C 4,6 C 0,0 C 84 % 81 % 0 % 1022,8 hPa 0,0 l/m 6,9 km/h (2 Bft) W-SW 247 0 min 3,0 C 3,0 C 8,4 km/h (2 Bft)
24.12.2016 16:00 5,5 C 3,7 C 5,0 C 5,2 C 4,7 C 0,0 C 83 % 81 % 0 % 1022,8 hPa 0,0 l/m 6,1 km/h (2 Bft) W-SW 247 0 min 2,8 C 3,3 C 9,0 km/h (2 Bft)
24.12.2016 16:05 5,5 C 3,7 C 4,8 C 5,1 C 4,3 C 0,0 C 83 % 81 % 0 % 1022,8 hPa 0,0 l/m 6,6 km/h (2 Bft) S 180 0 min 2,8 C 2,7 C 13,4 km/h (3 Bft)
24.12.2016 16:10 5,4 C 3,7 C 4,7 C 4,9 C 4,0 C 0,0 C 83 % 81 % 0 % 1022,8 hPa 0,0 l/m 6,9 km/h (2 Bft) W 270 0 min 2,7 C 2,3 C 8,5 km/h (2 Bft)
24.12.2016 16:15 5,3 C 3,7 C 4,7 C 4,8 C 3,7 C 0,0 C 83 % 82 % 0 % 1022,8 hPa 0,0 l/m 7,4 km/h (2 Bft) SW 225 0 min 2,7 C 1,8 C 5,3 km/h (1 Bft)
24.12.2016 16:20 5,2 C 3,7 C 4,5 C 4,6 C 3,5 C 0,0 C 83 % 82 % 0 % 1022,8 hPa 0,0 l/m 7,6 km/h (2 Bft) S 180 0 min 2,6 C 1,5 C 5,3 km/h (1 Bft)
24.12.2016 16:25 5,2 C 3,7 C 4,4 C 4,8 C 4,1 C 0,0 C 83 % 82 % 0 % 1022,8 hPa 0,0 l/m 5,0 km/h (1 Bft) W 270 0 min 2,6 C 3,1 C 1,9 km/h (1 Bft)
24.12.2016 16:30 5,1 C 3,7 C 4,3 C 4,8 C 4,3 C 0,0 C 84 % 82 % 0 % 1022,8 hPa 0,0 l/m 3,9 km/h (1 Bft) W 270 0 min 2,6 C 4,3 C 8,2 km/h (2 Bft)
24.12.2016 16:35 4,8 C 3,7 C 4,2 C 4,7 C 4,4 C 0,0 C 83 % 82 % 0 % 1022,8 hPa 0,0 l/m 3,1 km/h (1 Bft) W-SW 247 0 min 2,2 C 4,4 C 12,7 km/h (3 Bft)
24.12.2016 16:40 4,8 C 3,7 C 4,3 C 4,4 C 3,7 C 0,0 C 83 % 82 % 0 % 1022,8 hPa 0,0 l/m 4,5 km/h (1 Bft) S-SO 157 0 min 2,2 C 3,7 C 7,1 km/h (2 Bft)
24.12.2016 16:45 4,8 C 3,7 C 4,3 C 4,2 C 3,1 C 0,0 C 83 % 81 % 0 % 1022,8 hPa 0,0 l/m 7,1 km/h (2 Bft) SW 225 0 min 2,2 C 1,2 C 8,0 km/h (2 Bft)
24.12.2016 16:50 4,9 C 3,7 C 4,3 C 4,3 C 3,2 C 0,0 C 83 % 81 % 0 % 1022,8 hPa 0,0 l/m 7,6 km/h (2 Bft) W-SW 247 0 min 2,3 C 1,1 C 8,0 km/h (2 Bft)
24.12.2016 16:55 4,9 C 3,7 C 4,3 C 4,6 C 3,4 C 0,0 C 83 % 81 % 0 % 1022,8 hPa 0,0 l/m 7,7 km/h (2 Bft) W-SW 247 0 min 2,3 C 1,3 C 10,0 km/h (2 Bft)
24.12.2016 17:00 4,9 C 3,8 C 4,3 C 4,5 C 3,6 C 0,0 C 83 % 81 % 0 % 1022,8 hPa 0,0 l/m 7,1 km/h (2 Bft) W-SW 247 0 min 2,3 C 1,8 C 6,3 km/h (2 Bft)
24.12.2016 17:05 4,9 C 3,8 C 4,3 C 4,5 C 3,6 C 0,0 C 83 % 80 % 0 % 1022,8 hPa 0,0 l/m 7,2 km/h (2 Bft) S 180 0 min 2,3 C 1,7 C 11,9 km/h (2 Bft)
24.12.2016 17:10 5,1 C 3,8 C 4,3 C 4,6 C 3,6 C 0,0 C 83 % 81 % 0 % 1022,8 hPa 0,0 l/m 7,4 km/h (2 Bft) SW 225 0 min 2,5 C 1,7 C 9,8 km/h (2 Bft)
24.12.2016 17:15 5,1 C 3,8 C 4,3 C 4,6 C 3,7 C 0,0 C 83 % 81 % 0 % 1022,8 hPa 0,0 l/m 6,8 km/h (2 Bft) W 270 0 min 2,5 C 2,0 C 4,0 km/h (1 Bft)
24.12.2016 17:20 5,1 C 3,8 C 4,4 C 4,7 C 4,0 C 0,0 C 83 % 81 % 0 % 1023,3 hPa 0,0 l/m 6,1 km/h (2 Bft) SW 225 0 min 2,5 C 2,5 C 6,8 km/h (2 Bft)
24.12.2016 17:25 5,1 C 3,8 C 4,4 C 4,8 C 3,6 C 0,0 C 83 % 81 % 0 % 1023,3 hPa 0,0 l/m 7,7 km/h (2 Bft) S-SW 202 0 min 2,5 C 1,6 C 24,6 km/h (4 Bft)
24.12.2016 17:30 5,2 C 3,8 C 4,5 C 4,7 C 3,7 C 0,0 C 82 % 81 % 0 % 1023,3 hPa 0,0 l/m 7,6 km/h (2 Bft) S-SW 202 0 min 2,4 C 1,7 C 6,1 km/h (2 Bft)
24.12.2016 17:35 5,2 C 3,8 C 4,4 C 4,7 C 3,8 C 0,0 C 82 % 81 % 0 % 1023,3 hPa 0,0 l/m 7,2 km/h (2 Bft) O-NO 67 0 min 2,4 C 2,0 C 4,2 km/h (1 Bft)
24.12.2016 17:40 5,2 C 3,8 C 4,4 C 4,7 C 3,8 C 0,0 C 82 % 82 % 0 % 1022,9 hPa 0,0 l/m 6,8 km/h (2 Bft) SW 225 0 min 2,4 C 2,1 C 11,7 km/h (2 Bft)
24.12.2016 17:45 5,2 C 3,8 C 4,3 C 4,7 C 3,6 C 0,0 C 82 % 82 % 0 % 1022,9 hPa 0,0 l/m 7,6 km/h (2 Bft) SW 225 0 min 2,4 C 1,6 C 8,7 km/h (2 Bft)
24.12.2016 17:50 5,2 C 3,8 C 4,3 C 4,8 C 3,4 C 0,0 C 82 % 82 % 0 % 1022,9 hPa 0,0 l/m 8,0 km/h (2 Bft) W-SW 247 0 min 2,4 C 1,3 C 13,0 km/h (3 Bft)
24.12.2016 17:55 5,3 C 3,8 C 4,3 C 4,8 C 3,1 C 0,0 C 82 % 82 % 0 % 1022,9 hPa 0,0 l/m 9,2 km/h (2 Bft) W-SW 247 0 min 2,5 C 0,6 C 13,4 km/h (3 Bft)
24.12.2016 18:00 5,2 C 3,8 C 4,3 C 4,5 C 3,1 C 0,0 C 82 % 82 % 0 % 1022,9 hPa 0,0 l/m 9,8 km/h (2 Bft) W-SW 247 0 min 2,4 C 0,4 C 12,9 km/h (3 Bft)
24.12.2016 18:05 5,3 C 3,8 C 4,3 C 4,8 C 3,2 C 0,0 C 82 % 82 % 0 % 1022,9 hPa 0,0 l/m 9,0 km/h (2 Bft) W-SW 247 0 min 2,5 C 0,8 C 10,0 km/h (2 Bft)
24.12.2016 18:10 5,1 C 3,8 C 4,1 C 4,7 C 3,3 C 0,0 C 82 % 83 % 0 % 1022,9 hPa 0,0 l/m 7,7 km/h (2 Bft) W-SW 247 0 min 2,3 C 1,2 C 8,7 km/h (2 Bft)
24.12.2016 18:15 5,1 C 3,8 C 4,0 C 4,5 C 3,4 C 0,0 C 82 % 83 % 0 % 1022,9 hPa 0,0 l/m 6,1 km/h (2 Bft) S-SW 202 0 min 2,3 C 1,8 C 6,0 km/h (2 Bft)
24.12.2016 18:20 4,9 C 3,8 C 4,0 C 4,4 C 3,5 C 0,0 C 82 % 83 % 0 % 1022,9 hPa 0,0 l/m 5,3 km/h (1 Bft) SO 135 0 min 2,1 C 2,3 C 7,7 km/h (2 Bft)
24.12.2016 18:25 4,8 C 3,8 C 3,9 C 4,3 C 3,4 C 0,0 C 82 % 83 % 0 % 1022,9 hPa 0,0 l/m 5,1 km/h (1 Bft) O-SO 112 0 min 2,0 C 2,2 C 3,9 km/h (1 Bft)
24.12.2016 18:30 4,9 C 3,8 C 3,9 C 4,4 C 3,4 C 0,0 C 82 % 83 % 0 % 1022,9 hPa 0,0 l/m 4,8 km/h (1 Bft) NO 45 0 min 2,1 C 2,4 C 4,3 km/h (1 Bft)
24.12.2016 18:35 4,8 C 3,8 C 3,9 C 4,4 C 3,6 C 0,0 C 82 % 83 % 0 % 1022,9 hPa 0,0 l/m 4,5 km/h (1 Bft) W-SW 247 0 min 2,0 C 3,6 C 6,4 km/h (2 Bft)
24.12.2016 18:40 4,8 C 3,8 C 3,9 C 4,4 C 3,7 C 0,0 C 82 % 83 % 0 % 1022,9 hPa 0,0 l/m 4,5 km/h (1 Bft) S-SO 157 0 min 2,0 C 3,7 C 8,9 km/h (2 Bft)
24.12.2016 18:45 4,7 C 3,8 C 3,9 C 4,4 C 3,7 C 0,0 C 83 % 82 % 0 % 1022,9 hPa 0,0 l/m 4,5 km/h (1 Bft) SW 225 0 min 2,1 C 3,7 C 11,1 km/h (2 Bft)
24.12.2016 18:50 4,7 C 3,8 C 3,9 C 4,4 C 3,8 C 0,0 C 83 % 82 % 0 % 1022,9 hPa 0,0 l/m 4,5 km/h (1 Bft) SW 225 0 min 2,1 C 3,8 C 8,2 km/h (2 Bft)
24.12.2016 18:55 4,7 C 3,8 C 3,9 C 4,2 C 3,3 C 0,0 C 83 % 82 % 0 % 1022,9 hPa 0,0 l/m 5,8 km/h (2 Bft) SW 225 0 min 2,1 C 1,8 C 4,8 km/h (1 Bft)
24.12.2016 19:00 4,8 C 3,8 C 3,9 C 4,3 C 3,4 C 0,0 C 82 % 81 % 0 % 1023,4 hPa 0,0 l/m 5,8 km/h (2 Bft) S-SO 157 0 min 2,0 C 2,0 C 3,2 km/h (1 Bft)
24.12.2016 19:05 4,8 C 3,8 C 3,9 C 4,5 C 3,9 C 0,0 C 82 % 81 % 0 % 1023,4 hPa 0,0 l/m 4,7 km/h (1 Bft) SW 225 0 min 2,0 C 3,0 C 7,7 km/h (2 Bft)
24.12.2016 19:10 4,8 C 3,8 C 3,9 C 4,4 C 3,7 C 0,0 C 82 % 81 % 0 % 1023,4 hPa 0,0 l/m 5,3 km/h (1 Bft) S 180 0 min 2,0 C 2,5 C 6,8 km/h (2 Bft)
24.12.2016 19:15 4,8 C 3,8 C 3,9 C 4,3 C 3,3 C 0,0 C 82 % 81 % 0 % 1023,4 hPa 0,0 l/m 7,2 km/h (2 Bft) W-SW 247 0 min 2,0 C 1,4 C 9,5 km/h (2 Bft)
24.12.2016 19:20 4,9 C 3,8 C 4,0 C 4,4 C 3,3 C 0,0 C 82 % 81 % 0 % 1023,9 hPa 0,0 l/m 7,4 km/h (2 Bft) SW 225 0 min 2,1 C 1,3 C 7,9 km/h (2 Bft)
24.12.2016 19:25 4,9 C 3,8 C 4,0 C 4,4 C 3,3 C 0,0 C 81 % 81 % 0 % 1023,9 hPa 0,0 l/m 7,4 km/h (2 Bft) S-SW 202 0 min 1,9 C 1,3 C 5,3 km/h (1 Bft)
24.12.2016 19:30 4,9 C 3,8 C 4,0 C 4,4 C 3,3 C 0,0 C 81 % 81 % 0 % 1023,9 hPa 0,0 l/m 7,2 km/h (2 Bft) W-SW 247 0 min 1,9 C 1,4 C 9,7 km/h (2 Bft)
24.12.2016 19:35 4,9 C 3,8 C 4,0 C 4,4 C 3,3 C 0,0 C 81 % 81 % 0 % 1023,9 hPa 0,0 l/m 7,4 km/h (2 Bft) W-SW 247 0 min 1,9 C 1,3 C 8,5 km/h (2 Bft)
24.12.2016 19:40 5,0 C 3,8 C 4,1 C 4,6 C 3,1 C 0,0 C 81 % 81 % 0 % 1023,9 hPa 0,0 l/m 7,9 km/h (2 Bft) W-SW 247 0 min 2,0 C 0,9 C 13,0 km/h (3 Bft)
24.12.2016 19:45 5,1 C 3,8 C 4,0 C 4,5 C 3,2 C 0,0 C 81 % 82 % 0 % 1023,9 hPa 0,0 l/m 7,6 km/h (2 Bft) SW 225 0 min 2,1 C 1,1 C 5,3 km/h (1 Bft)
24.12.2016 19:50 5,0 C 3,8 C 4,0 C 4,4 C 3,2 C 0,0 C 80 % 82 % 0 % 1023,9 hPa 0,0 l/m 7,7 km/h (2 Bft) W-SW 247 0 min 1,8 C 1,1 C 6,8 km/h (2 Bft)
24.12.2016 19:55 5,1 C 3,8 C 4,0 C 4,5 C 3,3 C 0,0 C 80 % 82 % 0 % 1023,9 hPa 0,0 l/m 7,2 km/h (2 Bft) W-SW 247 0 min 1,9 C 1,4 C 9,8 km/h (2 Bft)
24.12.2016 20:00 5,1 C 3,8 C 4,0 C 4,5 C 3,4 C 0,0 C 79 % 83 % 0 % 1023,9 hPa 0,0 l/m 7,2 km/h (2 Bft) W-SW 247 0 min 1,8 C 1,5 C 10,0 km/h (2 Bft)
24.12.2016 20:05 5,1 C 3,8 C 4,1 C 4,5 C 3,4 C 0,0 C 79 % 83 % 0 % 1023,9 hPa 0,0 l/m 8,0 km/h (2 Bft) W-SW 247 0 min 1,8 C 1,3 C 11,1 km/h (2 Bft)
24.12.2016 20:10 5,2 C 3,8 C 4,2 C 4,6 C 3,4 C 0,0 C 78 % 83 % 0 % 1023,9 hPa 0,0 l/m 8,4 km/h (2 Bft) S-SW 202 0 min 1,7 C 1,1 C 7,1 km/h (2 Bft)
24.12.2016 20:15 5,3 C 3,8 C 4,2 C 4,9 C 3,2 C 0,0 C 78 % 85 % 0 % 1023,9 hPa 0,0 l/m 9,3 km/h (2 Bft) W-SW 247 0 min 1,8 C 0,7 C 14,6 km/h (3 Bft)
24.12.2016 20:20 5,2 C 3,8 C 4,3 C 4,8 C 3,1 C 0,0 C 77 % 86 % 0 % 1024,1 hPa 0,0 l/m 9,5 km/h (2 Bft) W-SW 247 0 min 1,5 C 0,5 C 12,6 km/h (3 Bft)
24.12.2016 20:25 5,2 C 3,8 C 4,2 C 4,5 C 3,1 C 0,0 C 77 % 87 % 0 % 1024,1 hPa 0,0 l/m 9,5 km/h (2 Bft) S-SW 202 0 min 1,5 C 0,5 C 10,5 km/h (2 Bft)
24.12.2016 20:30 5,2 C 3,8 C 4,2 C 4,5 C 3,1 C 0,0 C 77 % 88 % 0 % 1024,1 hPa 0,0 l/m 9,2 km/h (2 Bft) SW 225 0 min 1,5 C 0,6 C 9,0 km/h (2 Bft)
24.12.2016 20:35 5,2 C 3,8 C 4,3 C 4,7 C 2,9 C 0,0 C 77 % 89 % 0 % 1024,1 hPa 0,0 l/m 10,1 km/h (2 Bft) SW 225 0 min 1,5 C 0,1 C 10,9 km/h (2 Bft)
24.12.2016 20:40 5,2 C 3,8 C 4,3 C 4,4 C 2,9 C 0,0 C 77 % 89 % 0 % 1023,4 hPa 0,0 l/m 10,1 km/h (2 Bft) W-SW 247 0 min 1,5 C 0,1 C 11,9 km/h (2 Bft)
24.12.2016 20:45 5,1 C 3,8 C 4,1 C 4,6 C 3,1 C 0,0 C 77 % 89 % 0 % 1023,4 hPa 0,0 l/m 9,3 km/h (2 Bft) SW 225 0 min 1,4 C 0,6 C 15,0 km/h (3 Bft)
24.12.2016 20:50 5,1 C 3,8 C 4,1 C 4,4 C 3,1 C 0,0 C 77 % 89 % 0 % 1023,4 hPa 0,0 l/m 9,2 km/h (2 Bft) SW 225 0 min 1,4 C 0,6 C 11,6 km/h (2 Bft)
24.12.2016 20:55 5,1 C 3,7 C 4,0 C 4,4 C 3,1 C 0,0 C 77 % 90 % 0 % 1023,4 hPa 0,0 l/m 8,9 km/h (2 Bft) SW 225 0 min 1,4 C 0,7 C 9,7 km/h (2 Bft)
24.12.2016 21:00 5,0 C 3,7 C 4,0 C 4,4 C 3,1 C 0,0 C 77 % 90 % 0 % 1023,4 hPa 0,0 l/m 8,2 km/h (2 Bft) S 180 0 min 1,3 C 0,8 C 12,7 km/h (3 Bft)
24.12.2016 21:05 5,0 C 3,7 C 4,0 C 4,5 C 2,8 C 0,0 C 77 % 90 % 0 % 1023,4 hPa 0,0 l/m 9,5 km/h (2 Bft) SW 225 0 min 1,3 C 0,2 C 13,5 km/h (3 Bft)
24.12.2016 21:10 5,0 C 3,7 C 4,1 C 4,5 C 2,6 C 0,0 C 77 % 90 % 0 % 1023,4 hPa 0,0 l/m 10,5 km/h (2 Bft) SW 225 0 min 1,3 C -0,3 C 10,0 km/h (2 Bft)
24.12.2016 21:15 5,1 C 3,7 C 4,1 C 4,5 C 2,5 C 0,0 C 77 % 90 % 0 % 1023,4 hPa 0,0 l/m 11,4 km/h (2 Bft) W-SW 247 0 min 1,4 C -0,6 C 9,5 km/h (2 Bft)
24.12.2016 21:20 5,1 C 3,7 C 4,1 C 4,5 C 2,4 C 0,0 C 77 % 90 % 0 % 1023,6 hPa 0,0 l/m 11,6 km/h (2 Bft) W-SW 247 0 min 1,4 C -0,8 C 12,1 km/h (2 Bft)
24.12.2016 21:25 5,1 C 3,7 C 4,1 C 4,5 C 2,7 C 0,0 C 77 % 89 % 0 % 1023,6 hPa 0,0 l/m 11,1 km/h (2 Bft) W-SW 247 0 min 1,4 C -0,3 C 12,9 km/h (3 Bft)
24.12.2016 21:30 5,2 C 3,7 C 4,1 C 4,6 C 2,6 C 0,0 C 77 % 89 % 0 % 1023,6 hPa 0,0 l/m 11,4 km/h (2 Bft) W-SW 247 0 min 1,5 C -0,5 C 15,8 km/h (3 Bft)
24.12.2016 21:35 5,2 C 3,7 C 4,1 C 4,6 C 2,7 C 0,0 C 77 % 89 % 0 % 1023,6 hPa 0,0 l/m 10,9 km/h (2 Bft) SW 225 0 min 1,5 C -0,3 C 6,4 km/h (2 Bft)
24.12.2016 21:40 5,1 C 3,7 C 4,1 C 4,3 C 2,7 C 0,0 C 77 % 89 % 0 % 1023,6 hPa 0,0 l/m 10,3 km/h (2 Bft) SW 225 0 min 1,4 C -0,2 C 13,8 km/h (3 Bft)
24.12.2016 21:45 5,1 C 3,7 C 4,1 C 4,6 C 3,0 C 0,0 C 77 % 89 % 0 % 1023,6 hPa 0,0 l/m 9,2 km/h (2 Bft) S 180 0 min 1,4 C 0,5 C 12,4 km/h (3 Bft)
24.12.2016 21:50 5,1 C 3,7 C 4,1 C 4,6 C 2,9 C 0,0 C 77 % 89 % 0 % 1023,6 hPa 0,0 l/m 9,5 km/h (2 Bft) W 270 0 min 1,4 C 0,3 C 10,5 km/h (2 Bft)
24.12.2016 21:55 5,0 C 3,7 C 4,1 C 4,5 C 2,7 C 0,0 C 77 % 89 % 0 % 1023,6 hPa 0,0 l/m 10,0 km/h (2 Bft) W-SW 247 0 min 1,3 C -0,1 C 9,5 km/h (2 Bft)
24.12.2016 22:00 5,0 C 3,7 C 4,0 C 4,2 C 2,7 C 0,0 C 77 % 89 % 0 % 1023,6 hPa 0,0 l/m 9,7 km/h (2 Bft) SW 225 0 min 1,3 C -0,0 C 13,0 km/h (3 Bft)
24.12.2016 22:05 5,1 C 3,7 C 4,0 C 4,6 C 2,9 C 0,0 C 77 % 89 % 0 % 1023,6 hPa 0,0 l/m 9,0 km/h (2 Bft) W-SW 247 0 min 1,4 C 0,4 C 10,8 km/h (2 Bft)
24.12.2016 22:10 5,0 C 3,7 C 4,1 C 4,3 C 2,9 C 0,0 C 77 % 89 % 0 % 1023,6 hPa 0,0 l/m 8,9 km/h (2 Bft) N-NO 22 0 min 1,3 C 0,4 C 8,2 km/h (2 Bft)
24.12.2016 22:15 5,0 C 3,7 C 4,0 C 4,5 C 2,7 C 0,0 C 78 % 89 % 0 % 1023,6 hPa 0,0 l/m 9,7 km/h (2 Bft) W-SW 247 0 min 1,5 C -0,0 C 7,1 km/h (2 Bft)
24.12.2016 22:20 5,1 C 3,7 C 4,1 C 4,6 C 2,8 C 0,0 C 78 % 90 % 0 % 1022,8 hPa 0,0 l/m 9,8 km/h (2 Bft) SW 225 0 min 1,6 C 0,1 C 10,5 km/h (2 Bft)
24.12.2016 22:25 5,0 C 3,7 C 4,2 C 4,6 C 3,1 C 0,0 C 78 % 90 % 0 % 1022,8 hPa 0,0 l/m 9,3 km/h (2 Bft) S-SW 202 0 min 1,5 C 0,6 C 7,4 km/h (2 Bft)
24.12.2016 22:30 5,1 C 3,7 C 4,3 C 4,7 C 3,2 C 0,0 C 78 % 89 % 0 % 1022,8 hPa 0,0 l/m 9,2 km/h (2 Bft) SW 225 0 min 1,6 C 0,7 C 8,4 km/h (2 Bft)
24.12.2016 22:35 5,2 C 3,7 C 4,4 C 4,8 C 3,3 C 0,0 C 78 % 89 % 0 % 1022,8 hPa 0,0 l/m 9,0 km/h (2 Bft) S-SW 202 0 min 1,7 C 0,9 C 7,4 km/h (2 Bft)
24.12.2016 22:40 5,2 C 3,7 C 4,5 C 4,8 C 3,4 C 0,0 C 78 % 90 % 0 % 1023,1 hPa 0,0 l/m 8,7 km/h (2 Bft) W 270 0 min 1,7 C 1,1 C 8,2 km/h (2 Bft)
24.12.2016 22:45 5,2 C 3,7 C 4,5 C 4,8 C 4,1 C 0,0 C 78 % 89 % 0 % 1023,1 hPa 0,0 l/m 6,3 km/h (2 Bft) S-SO 157 0 min 1,7 C 2,6 C 3,4 km/h (1 Bft)
24.12.2016 22:50 5,1 C 3,7 C 4,4 C 4,9 C 4,4 C 0,0 C 78 % 90 % 0 % 1023,1 hPa 0,0 l/m 5,1 km/h (1 Bft) W-SW 247 0 min 1,6 C 3,4 C 7,4 km/h (2 Bft)
24.12.2016 22:55 5,1 C 3,7 C 4,4 C 4,8 C 4,1 C 0,0 C 78 % 90 % 0 % 1023,1 hPa 0,0 l/m 6,0 km/h (2 Bft) W-NW 292 0 min 1,6 C 2,7 C 9,5 km/h (2 Bft)
24.12.2016 23:00 5,1 C 3,7 C 4,4 C 4,6 C 3,7 C 0,0 C 79 % 90 % 0 % 1023,0 hPa 0,0 l/m 7,1 km/h (2 Bft) SW 225 0 min 1,8 C 1,9 C 12,2 km/h (2 Bft)
24.12.2016 23:05 5,1 C 3,7 C 4,4 C 4,7 C 3,9 C 0,0 C 79 % 90 % 0 % 1023,0 hPa 0,0 l/m 6,4 km/h (2 Bft) NW 315 0 min 1,8 C 2,3 C 3,5 km/h (1 Bft)
24.12.2016 23:10 5,1 C 3,7 C 4,4 C 4,8 C 4,1 C 0,0 C 79 % 90 % 0 % 1023,0 hPa 0,0 l/m 6,3 km/h (2 Bft) W-SW 247 0 min 1,8 C 2,6 C 5,6 km/h (1 Bft)
24.12.2016 23:15 5,1 C 3,7 C 4,4 C 4,9 C 4,4 C 0,0 C 79 % 90 % 0 % 1023,0 hPa 0,0 l/m 5,3 km/h (1 Bft) W-NW 292 0 min 1,8 C 3,3 C 5,1 km/h (1 Bft)
24.12.2016 23:20 5,1 C 3,7 C 4,4 C 4,9 C 4,5 C 0,0 C 79 % 90 % 0 % 1023,4 hPa 0,0 l/m 5,0 km/h (1 Bft) O-SO 112 0 min 1,8 C 3,5 C 4,7 km/h (1 Bft)
24.12.2016 23:25 5,2 C 3,7 C 4,4 C 4,8 C 4,1 C 0,0 C 79 % 90 % 0 % 1023,4 hPa 0,0 l/m 5,6 km/h (1 Bft) SW 225 0 min 1,9 C 2,8 C 13,0 km/h (3 Bft)
24.12.2016 23:30 5,2 C 3,7 C 4,4 C 4,8 C 3,9 C 0,0 C 79 % 90 % 0 % 1023,4 hPa 0,0 l/m 6,1 km/h (2 Bft) W 270 0 min 1,9 C 2,4 C 5,1 km/h (1 Bft)
24.12.2016 23:35 5,1 C 3,7 C 4,4 C 4,5 C 3,4 C 0,0 C 79 % 90 % 0 % 1023,4 hPa 0,0 l/m 7,4 km/h (2 Bft) SW 225 0 min 1,8 C 1,4 C 9,7 km/h (2 Bft)
24.12.2016 23:40 5,2 C 3,8 C 4,4 C 4,8 C 3,3 C 0,0 C 79 % 90 % 0 % 1023,4 hPa 0,0 l/m 8,2 km/h (2 Bft) SO 135 0 min 1,9 C 1,1 C 10,3 km/h (2 Bft)
24.12.2016 23:45 5,2 C 3,8 C 4,4 C 4,8 C 3,4 C 0,0 C 79 % 90 % 0 % 1023,4 hPa 0,0 l/m 8,0 km/h (2 Bft) W-SW 247 0 min 1,9 C 1,3 C 7,7 km/h (2 Bft)
24.12.2016 23:50 5,2 C 3,8 C 4,4 C 4,8 C 3,6 C 0,0 C 79 % 90 % 0 % 1023,4 hPa 0,0 l/m 7,7 km/h (2 Bft) W-SW 247 0 min 1,9 C 1,6 C 11,4 km/h (2 Bft)
24.12.2016 23:55 5,3 C 3,8 C 4,5 C 4,8 C 3,7 C 0,0 C 79 % 90 % 0 % 1023,4 hPa 0,0 l/m 7,6 km/h (2 Bft) SW 225 0 min 2,0 C 1,7 C 9,2 km/h (2 Bft)
_ Min-Zeit 01:05 00:15 01:05 01:05 01:20 01:05 20:20 04:30 00:00 15:40 - 01:05 - - - 01:05 01:20 00:05
Minimum _ -1,3 C 2,5 C -1,0 C -1,3 C -2,0 C 0,0 C 77 % 75 % 0 % 1022,8 hPa - 0,0 km/h (0 Bft) - - - -3,2 C -4,0 C 0,0 km/h (0 Bft)
_ Max-Zeit 14:05 17:00 13:55 13:55 13:55 13:55 01:25 20:55 13:55 00:00 02:20 21:20 - - 00:00 14:05 13:55 17:25
Maximum _ 6,3 C 3,8 C 6,3 C 8,8 C 8,8 C 2,8 C 88 % 90 % 74 % 1029,9 hPa 0,7 l/m 11,6 km/h
W-SW (2 Bft)
- - 0 min 3,6 C 8,8 C 24,6 km/h
S-SW (4 Bft)
Durchschnitt _ 3,8 C 3,2 C 3,7 C 3,9 C 3,3 C 0,3 C 83 % 82 % 5 % 1024,6 hPa #2,1 l/m 5,4 km/h (1 Bft) W-SW - #0 min. 1,3 C 2,3 C 7,0 km/h (2 Bft)
2016 www.wetterstation-wechselburg.de